GW3750 Weather Reports


time (UTC)temp
F
wind
direction
speed
knots
gust
knots
rain 1hr
in
rain 24hr
in
rain mn
in
humidity
%
barometer
mb
20260510104527 62 10 0.0 0.0 0.00 0.67 0.00 96 1015.2
20260510104005 62 10 0.0 0.0 0.00 0.67 0.00 96 1015.0
20260510103505 62 10 0.0 0.0 0.00 0.67 0.00 96 1015.0
20260510103006 62 10 0.0 0.0 0.00 0.67 0.00 96 1015.0
20260510102504 63 10 0.0 0.0 0.00 0.67 0.00 96 1014.9
20260510102003 62 10 0.0 0.0 0.00 0.67 0.00 96 1014.7
20260510101507 63 10 0.0 0.0 0.00 0.67 0.00 96 1014.6
20260510101005 63 10 0.0 0.0 0.00 0.67 0.00 96 1014.6
20260510100504 63 10 0.0 0.0 0.00 0.67 0.00 96 1014.7
20260510100015 63 10 0.0 0.9 0.00 0.67 0.00 96 1014.6
20260510095507 63 10 0.0 0.9 0.00 0.67 0.00 96 1014.6
20260510095008 63 10 0.0 0.0 0.00 0.67 0.00 96 1014.5
20260510094531 63 10 0.0 0.0 0.00 0.67 0.00 96 1014.5
20260510094004 64 10 0.0 0.9 0.00 0.67 0.00 96 1014.4
20260510093507 64 10 0.0 1.7 0.00 0.67 0.00 96 1014.5
20260510093016 64 10 0.0 1.7 0.00 0.67 0.00 96 1014.4
20260510092505 64 10 0.0 1.7 0.00 0.67 0.00 96 1014.4
20260510092011 64 3 0.0 1.7 0.00 0.67 0.00 96 1014.4
20260510091517 64 4 0.9 1.7 0.00 0.67 0.00 96 1014.4
20260510091003 64 10 0.9 0.9 0.00 0.67 0.00 96 1014.5
20260510090504 64 14 0.0 0.9 0.00 0.67 0.00 96 1014.6
20260510090010 64 14 0.0 1.7 0.00 0.67 0.00 96 1014.5
20260510085504 64 70 0.9 1.7 0.00 0.67 0.00 96 1014.5
20260510085008 64 183 0.0 0.9 0.00 0.67 0.00 96 1014.6
20260510084515 64 182 0.0 0.9 0.00 0.67 0.00 96 1014.6
20260510084005 64 198 0.0 0.0 0.00 0.67 0.00 96 1014.5
20260510083507 64 198 0.0 0.0 0.00 0.67 0.00 96 1014.6
20260510083018 64 198 0.0 0.0 0.00 0.67 0.00 96 1014.6
20260510082507 64 198 0.0 0.0 0.00 0.67 0.00 96 1014.5
20260510082011 64 198 0.0 0.0 0.00 0.67 0.00 96 1014.5
20260510081532 64 198 0.0 0.0 0.00 0.67 0.00 96 1014.4
20260510081009 64 198 0.0 0.0 0.00 0.67 0.00 96 1014.3
20260510080507 64 198 0.0 0.0 0.00 0.67 0.00 96 1014.2
20260510080020 64 198 0.0 0.0 0.00 0.67 0.00 96 1014.2
20260510075503 64 198 0.0 0.0 0.00 0.67 0.00 96 1014.1
20260510075004 64 198 0.0 0.0 0.00 0.67 0.00 96 1013.9
20260510074510 64 198 0.0 0.0 0.00 0.67 0.00 96 1014.0
20260510074006 64 198 0.0 0.0 0.00 0.67 0.00 96 1013.9
20260510073504 64 199 0.0 0.0 0.00 0.67 0.00 96 1013.8
20260510073018 64 199 0.0 0.0 0.00 0.67 0.00 96 1013.9
20260510072505 64 200 0.0 0.0 0.00 0.67 0.00 96 1014.0
20260510072010 64 200 0.0 0.0 0.00 0.67 0.00 96 1014.0
20260510071520 64 199 0.0 0.0 0.00 0.67 0.00 96 1014.0
20260510071006 64 199 0.0 0.0 0.00 0.67 0.00 96 1014.0
20260510070511 64 199 0.0 0.0 0.00 0.67 0.00 96 1014.1
20260510070022 64 199 0.0 0.0 0.00 0.67 0.00 96 1014.0
20260510065508 64 199 0.0 0.9 0.00 0.67 0.00 96 1013.9
20260510065011 64 199 0.0 0.9 0.00 0.67 0.00 96 1014.0
20260510064522 64 131 0.0 0.9 0.00 0.67 0.00 96 1014.0
20260510064007 64 273 0.0 0.9 0.00 0.67 0.00 96 1014.1
20260510063503 64 273 0.0 0.9 0.00 0.67 0.00 96 1014.2
20260510063016 64 273 0.0 0.9 0.00 0.67 0.00 96 1014.2
20260510062507 64 273 0.0 1.7 0.00 0.67 0.00 96 1014.2
20260510062013 64 273 0.0 1.7 0.00 0.68 0.00 96 1014.3
20260510061525 63 273 0.0 0.9 0.00 0.68 0.00 96 1014.3
20260510061010 63 273 0.0 0.0 0.00 0.68 0.00 96 1014.2
20260510060513 63 273 0.0 0.0 0.00 0.68 0.00 96 1014.2
20260510060006 63 273 0.0 0.0 0.00 0.68 0.00 96 1014.1
20260510055503 63 273 0.0 0.0 0.00 0.68 0.00 96 1014.0
20260510055005 64 274 0.0 0.0 0.00 0.68 0.00 96 1014.0
20260510054517 64 273 0.0 0.0 0.00 0.68 0.00 96 1014.1
20260510054003 64 301 0.0 0.0 0.00 0.68 0.00 96 1014.2
20260510053503 64 39 0.0 0.0 0.00 0.68 0.00 96 1013.9
20260510053011 64 39 0.0 0.0 0.00 0.68 0.00 96 1013.9
20260510052504 64 39 0.0 0.0 0.00 0.68 0.00 96 1013.9
20260510052010 64 39 0.0 0.0 0.00 0.68 0.00 96 1013.9
20260510051532 64 39 0.0 0.0 0.00 0.68 0.00 96 1014.0
20260510051006 64 39 0.0 0.0 0.00 0.68 0.00 96 1014.0
20260510050505 64 39 0.0 0.0 0.00 0.68 0.00 96 1014.0
20260510050004 64 39 0.0 0.0 0.00 0.68 0.00 96 1014.0
20260510045508 64 39 0.0 0.0 0.00 0.68 0.68 96 1014.1
20260510045004 64 39 0.0 0.9 0.00 0.68 0.68 96 1014.2
20260510044508 64 39 0.0 0.9 0.00 0.68 0.68 96 1014.3
20260510044005 64 39 0.0 0.0 0.00 0.68 0.68 96 1014.1
20260510043503 64 98 0.0 0.0 0.00 0.68 0.68 96 1014.1
20260510043017 64 66 0.0 0.0 0.00 0.68 0.68 96 1014.2
20260510042505 64 66 0.0 0.0 0.00 0.68 0.68 96 1014.3
20260510042005 64 66 0.0 0.0 0.00 0.68 0.68 96 1014.3
20260510041519 64 66 0.0 0.0 0.00 0.68 0.68 96 1014.4
20260510041005 64 66 0.0 0.0 0.00 0.68 0.68 96 1014.4
20260510040505 64 66 0.0 0.0 0.00 0.68 0.68 95 1014.6
20260510040017 64 66 0.0 0.0 0.00 0.68 0.68 95 1014.8
20260510035505 64 66 0.0 0.0 0.00 0.68 0.68 95 1014.7
20260510035011 64 66 0.0 0.9 0.00 0.68 0.68 95 1014.9
20260510034522 65 66 0.0 0.9 0.00 0.68 0.68 95 1014.9
20260510034007 65 66 0.0 0.9 0.00 0.68 0.68 96 1014.9
20260510033504 65 66 0.0 0.9 0.00 0.68 0.68 96 1014.8
20260510033005 65 65 0.0 0.9 0.00 0.68 0.68 95 1014.9
20260510032506 65 65 0.0 0.9 0.00 0.68 0.68 95 1014.8
20260510032003 65 82 0.0 1.7 0.00 0.68 0.68 95 1014.7
20260510031524 65 82 0.0 1.7 0.00 0.68 0.68 95 1014.4
20260510031004 65 65 0.0 0.9 0.00 0.68 0.68 95 1014.4
20260510030510 65 20 0.0 0.9 0.00 0.68 0.68 95 1014.6
20260510030016 65 20 0.9 1.7 0.00 0.68 0.68 95 1014.5
20260510025505 65 352 0.9 1.7 0.00 0.68 0.68 95 1014.6
20260510025006 65 58 0.9 1.7 0.00 0.68 0.68 95 1014.4
20260510024521 65 58 0.0 0.9 0.00 0.68 0.68 95 1014.7
20260510024006 65 58 0.0 0.9 0.00 0.68 0.68 95 1014.8
20260510023510 65 58 0.0 0.9 0.00 0.68 0.68 95 1014.7
20260510023022 65 58 0.0 1.7 0.00 0.68 0.68 95 1014.5
20260510022506 65 58 0.9 1.7 0.00 0.68 0.68 95 1014.3
20260510022003 65 30 0.0 0.9 0.00 0.68 0.68 95 1014.4
20260510021509 65 335 0.0 0.9 0.00 0.68 0.68 95 1014.7
20260510021004 65 334 0.0 0.9 0.00 0.68 0.68 94 1014.6
20260510020504 65 277 0.0 0.9 0.00 0.68 0.68 94 1014.6
20260510020009 65 277 0.0 0.9 0.00 0.68 0.68 94 1014.7
20260510015508 65 277 0.0 0.0 0.00 0.68 0.68 94 1014.5
20260510015008 65 277 0.0 0.9 0.00 0.68 0.68 94 1014.5
20260510014521 65 277 0.0 1.7 0.00 0.68 0.68 94 1014.3
20260510014006 65 277 0.0 1.7 0.00 0.68 0.68 94 1014.5
20260510013510 66 277 0.9 0.9 0.00 0.68 0.68 94 1014.3
20260510013021 66 343 0.0 0.9 0.00 0.68 0.68 93 1014.1
20260510012511 66 343 0.0 0.9 0.00 0.68 0.68 93 1013.9
20260510012015 66 343 0.0 0.9 0.00 0.68 0.68 93 1013.8
20260510011528 66 344 0.0 0.9 0.00 0.68 0.68 93 1013.7
20260510011006 66 326 0.0 0.9 0.00 0.68 0.68 93 1013.7
20260510010505 66 326 0.0 1.7 0.00 0.68 0.68 93 1013.7
20260510010008 66 326 0.9 1.7 0.00 0.68 0.68 93 1013.8
20260510005507 66 141 0.0 0.9 0.00 0.68 0.68 93 1013.8
20260510005008 66 243 0.0 0.9 0.00 0.68 0.68 93 1013.9
20260510004522 66 243 0.0 3.5 0.00 0.68 0.68 93 1014.1
20260510004011 66 243 0.0 4.3 0.00 0.68 0.68 93 1013.8
20260510003511 66 326 3.5 4.3 0.00 0.68 0.68 93 1014.0
20260510003018 66 104 0.9 3.5 0.00 0.68 0.68 92 1013.1
20260510002512 66 122 0.9 3.5 0.00 0.68 0.68 92 1013.1
20260510002008 67 117 0.0 0.0 0.00 0.68 0.68 92 1013.2
20260510001522 67 167 0.0 0.0 0.00 0.68 0.68 92 1013.3
20260510001009 67 204 0.0 0.0 0.00 0.68 0.68 92 1013.4
20260510000512 67 204 0.0 0.0 0.00 0.68 0.68 92 1013.5
20260510000030 67 204 0.0 0.9 0.00 0.68 0.68 91 1013.5
20260509235508 67 195 0.0 0.9 0.00 0.68 0.68 91 1013.4
20260509235006 67 158 0.0 0.0 0.00 0.68 0.68 91 1013.3
20260509234527 67 159 0.0 0.9 0.00 0.68 0.68 91 1013.4
20260509234007 67 158 0.0 0.9 0.00 0.68 0.68 91 1013.3
20260509233504 67 177 0.0 0.9 0.00 0.68 0.68 91 1013.3
20260509233016 67 200 0.0 0.9 0.00 0.68 0.68 91 1013.4
20260509232508 67 200 0.0 0.9 0.00 0.68 0.68 90 1013.5
20260509232006 67 218 0.0 0.0 0.00 0.68 0.68 90 1013.4
20260509231523 67 218 0.0 0.0 0.00 0.68 0.68 90 1013.4
20260509231007 67 204 0.0 1.7 0.00 0.68 0.68 90 1013.3
20260509230509 67 202 0.0 1.7 0.00 0.68 0.68 90 1013.2
20260509230026 67 196 0.0 1.7 0.00 0.68 0.68 90 1013.3
20260509225510 67 210 0.0 0.9 0.00 0.68 0.68 89 1013.2
20260509225013 67 247 0.0 0.9 0.00 0.68 0.68 90 1013.0
20260509224527 67 262 0.0 0.9 0.00 0.68 0.68 89 1013.0
20260509224008 67 262 0.0 1.7 0.00 0.68 0.68 90 1012.9
20260509223511 67 262 0.9 1.7 0.00 0.68 0.68 89 1012.9
20260509223018 67 210 0.0 1.7 0.00 0.68 0.68 89 1012.9
20260509222508 67 133 0.0 1.7 0.00 0.68 0.68 89 1012.8
20260509222008 68 167 0.0 1.7 0.00 0.68 0.68 90 1012.7
20260509221525 67 257 0.0 1.7 0.00 0.68 0.68 89 1012.8
20260509221008 68 170 0.0 3.5 0.00 0.69 0.68 89 1012.7
20260509220512 67 208 0.9 3.5 0.00 0.69 0.68 90 1012.6
20260509220023 67 257 0.0 1.7 0.00 0.71 0.68 89 1012.5
20260509215508 67 279 0.0 0.9 0.00 0.71 0.68 90 1012.5
20260509215013 67 138 0.0 0.9 0.00 0.71 0.68 90 1012.3
20260509214527 67 138 0.0 1.7 0.00 0.72 0.68 90 1012.2
20260509214012 67 195 0.9 3.5 0.00 0.72 0.68 90 1012.4
20260509213512 67 211 0.9 3.5 0.00 0.72 0.68 90 1012.4
20260509213026 67 188 1.7 3.5 0.00 0.72 0.68 89 1012.2
20260509212510 67 265 0.0 2.6 0.00 0.73 0.68 90 1012.2
20260509212013 67 244 0.9 2.6 0.00 0.73 0.68 90 1012.1
20260509211527 67 219 0.9 2.6 0.00 0.74 0.68 90 1012.1
20260509211007 67 215 0.9 5.2 0.00 0.74 0.68 90 1012.2
20260509210506 67 195 0.9 5.2 0.00 0.75 0.68 91 1012.4
20260509210036 67 242 0.9 2.6 0.00 0.76 0.68 90 1012.5
20260509205503 67 227 0.9 1.7 0.00 0.78 0.68 91 1012.4
20260509205003 67 195 0.9 1.7 0.00 0.80 0.68 91 1012.5
20260509204503 67 198 0.9 4.3 0.00 0.82 0.68 90 1012.4
20260509204005 67 224 0.9 4.3 0.00 0.84 0.68 91 1012.5
20260509203503 67 205 0.9 3.5 0.00 0.86 0.68 91 1012.9
20260509203011 67 206 1.7 3.5 0.00 0.88 0.68 91 1012.9
20260509202505 67 129 1.7 3.5 0.00 0.89 0.68 91 1012.7
20260509202004 67 215 0.9 4.3 0.00 0.91 0.68 91 1012.9
20260509201509 67 163 0.9 4.3 0.00 0.94 0.68 91 1012.9
20260509201004 67 208 0.9 3.5 0.00 0.95 0.68 91 1013.1
20260509200505 67 224 0.9 2.6 0.00 0.97 0.68 91 1013.1
20260509200018 67 211 0.0 3.5 0.00 0.99 0.68 91 1012.9
20260509195508 67 221 0.0 3.5 0.00 1.00 0.68 91 1012.7
20260509195007 67 239 1.7 3.5 0.00 1.01 0.68 91 1012.7
20260509194529 67 255 1.7 3.5 0.00 1.02 0.68 91 1012.7
20260509194009 67 212 0.0 3.5 0.00 1.03 0.68 92 1012.7
20260509193504 67 245 0.9 4.3 0.00 1.04 0.68 91 1012.7
20260509193007 67 234 1.7 4.3 0.00 1.07 0.68 91 1012.9
20260509192503 67 230 0.0 2.6 0.00 1.08 0.68 92 1012.9
20260509192005 67 266 0.9 4.3 0.00 1.09 0.68 92 1012.9
20260509191508 67 245 2.6 4.3 0.00 1.10 0.68 91 1013.1
20260509191006 67 264 0.9 4.3 0.00 1.11 0.68 92 1012.9
20260509190504 67 186 0.9 4.3 0.00 1.12 0.68 92 1013.0
20260509190014 66 217 1.7 4.3 0.00 1.12 0.68 92 1013.1
20260509185507 66 250 0.9 4.3 0.00 1.12 0.68 92 1013.0
20260509185005 66 200 1.7 4.3 0.00 1.13 0.68 92 1012.8
20260509184534 66 229 1.7 4.3 0.00 1.13 0.68 93 1013.0
20260509184005 66 229 1.7 4.3 0.00 1.13 0.68 93 1013.0
20260509183509 66 207 0.9 4.3 0.00 1.13 0.68 93 1013.0
20260509183023 66 268 0.9 4.3 0.00 1.13 0.68 93 1013.0
20260509182509 66 77 0.9 4.3 0.00 1.14 0.68 94 1013.1
20260509182003 66 212 0.9 5.2 0.00 1.14 0.68 94 1013.0
20260509181507 66 231 1.7 5.2 0.00 1.15 0.68 94 1012.9
20260509181003 66 193 1.7 4.3 0.00 1.15 0.68 95 1012.9
20260509180504 66 188 0.9 4.3 0.00 1.16 0.68 95 1013.0
20260509180022 66 212 1.7 4.3 0.00 1.16 0.68 95 1013.0
20260509175506 66 176 1.7 4.3 0.00 1.16 0.68 95 1012.9
20260509175009 66 210 0.0 1.7 0.00 1.16 0.68 96 1012.8
20260509174516 66 259 0.9 1.7 0.00 1.17 0.68 96 1012.8
20260509174008 65 240 0.9 2.6 0.00 1.20 0.68 95 1012.8
20260509173506 66 28 0.0 2.6 0.00 1.20 0.68 96 1012.7
20260509173050 65 233 0.9 2.6 0.00 1.21 0.68 96 1013.0
20260509172510 65 146 0.9 0.9 0.00 1.21 0.68 96 1013.1
20260509172008 66 138 0.0 0.9 0.00 1.22 0.68 96 1013.2
20260509171534 65 218 0.0 0.9 0.00 1.23 0.68 96 1013.2
20260509171007 65 207 0.0 0.9 0.00 1.24 0.68 96 1013.3
20260509170511 65 207 0.0 0.9 0.00 1.25 0.68 96 1013.3
20260509170012 65 207 0.0 0.9 0.00 1.26 0.68 96 1013.5
20260509165504 65 207 0.0 1.7 0.00 1.26 0.68 96 1013.4
20260509165003 65 207 0.0 1.7 0.00 1.27 0.68 96 1013.7
20260509164515 65 264 0.0 0.9 0.00 1.28 0.68 96 1014.1
20260509164006 64 264 0.0 0.9 0.00 1.29 0.68 96 1014.1
20260509163507 65 301 0.0 0.9 0.00 1.30 0.68 96 1014.1
20260509163023 64 301 0.0 1.7 0.00 1.30 0.68 96 1014.1
20260509162509 64 301 0.0 2.6 0.00 1.31 0.68 96 1014.0
20260509162009 64 89 1.7 2.6 0.00 1.32 0.68 96 1013.9
20260509161527 64 13 0.0 2.6 0.00 1.33 0.68 96 1013.9
20260509161010 64 91 0.0 2.6 0.00 1.34 0.68 97 1013.7
20260509160509 64 89 0.9 2.6 0.00 1.35 0.68 96 1013.7
20260509160026 64 321 0.0 2.6 0.00 1.36 0.68 96 1013.5
20260509155509 64 72 0.9 2.6 0.00 1.36 0.68 96 1013.4
20260509155012 64 88 0.9 1.7 0.00 1.36 0.68 96 1013.3
20260509154512 63 37 0.0 3.5 0.00 1.37 0.68 96 1013.5
20260509154003 63 45 0.9 3.5 0.00 1.37 0.68 96 1013.2
20260509153507 63 127 0.0 3.5 0.00 1.37 0.68 96 1013.1
20260509153022 63 68 0.0 3.5 0.01 1.37 0.68 96 1013.2
20260509152507 63 69 0.9 4.3 0.01 1.37 0.68 96 1013.3
20260509152009 63 130 0.0 5.2 0.01 1.37 0.68 96 1013.2
20260509151528 63 158 1.7 5.2 0.02 1.37 0.68 96 1013.2
20260509151011 63 101 2.6 4.3 0.04 1.37 0.68 96 1013.1
20260509150511 63 230 1.7 7.0 0.05 1.37 0.68 96 1013.2
20260509150024 63 135 1.7 7.0 0.07 1.37 0.68 96 1012.8
20260509145509 63 63 1.7 7.8 0.10 1.37 0.68 96 1012.7
20260509145015 63 81 2.6 8.7 0.12 1.37 0.68 96 1012.6
20260509144530 63 78 2.6 8.7 0.14 1.37 0.68 96 1013.3
20260509144008 63 144 2.6 10.4 0.15 1.37 0.68 96 1013.1
20260509143518 63 196 2.6 10.4 0.16 1.37 0.68 96 1013.2
20260509143028 63 68 3.5 10.4 0.17 1.36 0.67 96 1012.6
20260509142507 63 80 3.5 9.6 0.18 1.36 0.67 96 1012.9
20260509142006 63 117 4.3 9.6 0.20 1.36 0.67 96 1012.8
20260509141515 63 108 4.3 7.8 0.21 1.35 0.66 96 1012.5
20260509141008 63 55 2.6 7.8 0.20 1.33 0.64 96 1013.1
20260509140510 63 98 1.7 5.2 0.21 1.32 0.63 96 1013.3
20260509140023 63 89 0.9 4.3 0.19 1.30 0.61 96 1013.3
20260509135507 63 99 1.7 4.3 0.17 1.27 0.58 96 1013.4
20260509135008 63 46 1.7 3.5 0.16 1.25 0.56 96 1013.6
20260509134527 63 107 1.7 5.2 0.16 1.23 0.54 96 1013.5
20260509134009 63 68 1.7 5.2 0.16 1.22 0.52 96 1013.4
20260509133511 63 57 2.6 4.3 0.16 1.21 0.52 96 1013.5
20260509133028 63 81 0.9 2.6 0.15 1.19 0.50 96 1013.7
20260509132511 63 107 0.9 2.6 0.16 1.17 0.49 96 1013.9
20260509132015 63 14 0.0 2.6 0.16 1.16 0.47 96 1013.9
20260509131537 63 23 0.9 2.6 0.16 1.14 0.45 96 1013.9
20260509131012 63 41 0.9 1.7 0.17 1.13 0.44 96 1014.1
20260509130509 63 106 0.0 2.6 0.21 1.11 0.42 96 1014.5
20260509130050 63 84 0.0 5.2 0.25 1.11 0.42 96 1014.6
20260509125510 63 75 0.0 6.1 0.25 1.10 0.41 96 1014.5
20260509125008 63 31 2.6 7.8 0.27 1.09 0.40 96 1014.2
20260509124531 63 354 1.7 7.8 0.27 1.07 0.38 96 1013.9
20260509124009 63 13 3.5 7.8 0.30 1.05 0.37 96 1013.9
20260509123512 63 18 0.9 5.2 0.33 1.04 0.36 96 1014.3
20260509123046 63 346 0.9 3.5 0.33 1.04 0.35 96 1014.1
20260509122511 63 11 0.9 2.6 0.32 1.02 0.33 96 1014.4
20260509122012 63 56 0.9 2.6 0.30 1.00 0.31 96 1014.8
20260509121528 63 26 0.9 7.0 0.28 0.98 0.29 96 1014.7
20260509121010 63 347 1.7 10.4 0.26 0.96 0.27 96 1014.4
20260509120508 63 337 3.5 10.4 0.20 0.90 0.21 96 1014.1
20260509120036 63 39 3.5 12.2 0.16 0.86 0.17 96 1014.1
20260509115507 63 46 3.5 13.0 0.15 0.85 0.16 96 1014.1
20260509115010 64 320 6.1 13.0 0.12 0.82 0.13 96 1013.9
20260509114522 64 237 2.6 11.3 0.10 0.80 0.11 97 1014.0
20260509114008 64 15 5.2 11.3 0.06 0.76 0.07 97 1014.0
20260509113510 64 328 0.9 5.2 0.02 0.72 0.03 97 1013.9
20260509113006 64 330 0.9 1.7 0.01 0.71 0.02 97 1013.2
20260509112504 64 316 0.0 0.9 0.00 0.70 0.01 97 1012.6
20260509112004 64 316 0.0 0.9 0.00 0.70 0.01 97 1012.4
20260509111508 64 302 0.0 1.7 0.00 0.70 0.01 97 1012.1
20260509111004 64 302 0.0 2.6 0.00 0.70 0.01 97 1012.2
20260509110503 64 300 0.9 2.6 0.00 0.70 0.01 97 1012.0
20260509110015 64 37 0.9 2.6 0.00 0.70 0.01 97 1011.8
20260509105507 64 14 0.9 2.6 0.00 0.70 0.01 97 1011.9
20260509105009 63 10 0.9 2.6 0.00 0.70 0.01 97 1011.9